Home > Time Zones > World Clock > Weather > Mali > Bamako > Past weeks

Flag for Mali Weather past 2 weeks in Bamako, Mali

Now
75 °F

Passing clouds.


Feels Like: 73 °F
Forecast: 78 / 97 °F
Wind: 2 mph from North

Location: Bamako / Senou

Current Time: Jul 1, 2015 at 12:43:27 AM

Latest Report: Jul 1, 2015 at 12:00 AM


Visibility: N/A

Pressure: 30.01 "Hg

Humidity: 100%

Dew point: 75 °F

Location of BamakoLocation

Historic Weather in Bamako — Graph

°F

Bamako temperature yesterday

Maximum temperature yesterday: 90 °F (at 1:30 PM)
Minimum temperature yesterday: 73 °F (at 12:00 AM)
Average temperature yesterday: 78 °F

Past Weeks' High & Low Weather Summary

 TemperatureHumidityPressure
High102 °F (Jun 18, 3:30 PM)100% (Jun 20, 3:00 AM)30.15 "Hg (Jun 20, 3:00 AM)
Low68 °F (Jun 29, 9:00 AM)24% (Jun 18, 3:30 PM)29.80 "Hg (Jun 18, 4:30 PM)
Average82 °F72%29.98 "Hg
* Reported Jun 15 11:30 PM — Jun 30 11:30 PM, Bamako, Weather by CustomWeather, © 2015

Note: Actual official high and low records may vary slightly from our data, if they occured in-between our weather recording intervals... More about our weather records

Advertising

Bamako weather history for previous 24 hours

 ConditionsComfort  
Time TempWeatherWind HumidityBarometerVisibility
11:30 PM
Tue, Jun 30
75 °FPassing clouds.3 mph100%30.04 "HgN/A
11:00 PM73 °FPassing clouds.2 mph100%30.04 "HgN/A
10:30 PM75 °FPassing clouds.3 mph100%30.04 "Hg5 mi
10:00 PM75 °FPassing clouds.3 mph100%30.01 "Hg5 mi
9:30 PM75 °FPassing clouds.5 mph100%30.01 "Hg5 mi
9:00 PM75 °FPassing clouds.No wind100%30.01 "HgN/A
8:30 PM75 °FPassing clouds.No wind100%30.01 "HgN/A
8:00 PM75 °FPassing clouds.2 mph100%29.98 "HgN/A
7:30 PM75 °FThunderstorms. Passing clouds.3 mph100%29.98 "HgN/A
7:00 PM75 °FThunderstorms. Passing clouds.3 mph100%29.98 "HgN/A
6:30 PM75 °FThunderstorms. Scattered clouds.No wind100%29.98 "HgN/A
6:00 PM75 °FThunderstorms. Scattered clouds.13 mph94%29.98 "HgN/A
5:00 PM75 °FThunderstorms. Broken clouds.23 mph100%29.98 "Hg4 mi
4:30 PM90 °FScattered clouds.5 mph55%29.95 "HgN/A
4:00 PM90 °FScattered clouds.8 mph55%29.95 "HgN/A
3:00 PM90 °FBroken clouds.9 mph59%29.92 "HgN/A
2:30 PM90 °FScattered clouds.12 mph55%29.98 "HgN/A
1:30 PM90 °FScattered clouds.12 mph59%30.01 "HgN/A
1:00 PM88 °FScattered clouds.12 mph66%30.01 "HgN/A
12:30 PM88 °FScattered clouds.10 mph66%30.04 "HgN/A
12:00 PM86 °FScattered clouds.12 mph66%30.04 "HgN/A
11:30 AM86 °FScattered clouds.10 mph70%30.04 "HgN/A
11:00 AM84 °FScattered clouds.12 mph74%30.07 "HgN/A
10:30 AM82 °FScattered clouds.13 mph74%30.07 "HgN/A
10:00 AM82 °FScattered clouds.14 mph74%30.07 "HgN/A
9:30 AM82 °FScattered clouds.14 mph74%30.07 "HgN/A
9:00 AM81 °FSunny.9 mph79%30.01 "Hg10 mi
8:30 AM79 °FSunny.8 mph89%30.04 "Hg10 mi
8:00 AM77 °FSunny.7 mph94%30.04 "Hg10 mi
7:30 AM75 °FSunny.5 mph100%30.01 "Hg10 mi
7:00 AM73 °FSunny.1 mph100%30.01 "Hg10 mi
6:30 AM73 °FClear.2 mph100%30.01 "Hg5 mi
6:00 AM73 °FFog.2 mph100%30.01 "Hg2 mi
5:30 AM73 °FFog.1 mph100%30.01 "Hg1 mi
5:00 AM73 °FFog.2 mph100%30.01 "Hg1 mi
4:30 AM73 °FFog.2 mph100%29.98 "Hg1 mi
4:00 AM73 °FFog.No wind100%29.98 "Hg2 mi
3:00 AM73 °FClear.No wind100%29.98 "Hg5 mi
2:30 AM73 °FClear.No wind100%29.98 "Hg10 mi
2:00 AM73 °FClear.1 mph100%30.01 "Hg10 mi
1:30 AM73 °FClear.2 mph100%30.01 "Hg10 mi
1:00 AM73 °FClear.2 mph100%30.01 "Hg10 mi
12:30 AM73 °FClear.2 mph100%30.01 "Hg10 mi
12:00 AM73 °FClear.1 mph100%30.01 "Hg10 mi
Weather by CustomWeather, © 2015

See weather overviewHow to use our weather pages